Location: Altendorf
(51.4585°N, 6.9745°E)
Time: 21:43:23
(UTC+00:00)

Daily predictions for brighter satellites

Satellite Brightness Start Highest point End
(mag) Time Altitude Azimuth Time Altitude Azimuth Time Altitude Azimuth
Ariane Rocket 4.1 17:50:18 10° ESE 17:54:25 26° ENE 17:58:33 10° N
H-2A R/B 2.3 17:50:20 10° SE 17:55:08 47° ENE 18:00:06 10° N
SJ 16-02 3.3 17:52:19 10° WSW 17:56:16 32° WNW 18:00:15 10° N
USA 116 4.2 17:55:45 10° NNE 17:59:09 36° E 18:02:54 10° SSE
Cosmos 2263 Rocket 2.7 17:54:01 10° SW 17:59:33 67° NW 18:05:10 10° NNE
COSMOS 2406 4.2 17:55:31 10° NNW 18:00:29 30° NE 18:05:26 10° ESE
Cosmos 1939 Rocket 3.9 17:59:03 10° S 18:03:06 54° W 18:07:12 10° NNW
Cosmos 1707 2.6 18:00:09 10° N 18:04:01 79° E 18:07:51 10° SSE
Cosmos 1844 Rocket 3.2 17:59:06 10° S 18:04:09 37° ESE 18:09:17 10° NE
Cosmos 1626 4.0 18:03:07 10° NNE 18:05:15 15° ENE 18:07:22 10° E
NOSS 3-2 (C) 4.1 17:58:21 10° NW 18:05:40 81° NE 18:14:03 10° SE
Cosmos 372 Rocket 4.0 18:00:48 10° S 18:05:59 65° ESE 18:11:09 10° NNE
ATLAS CENTAUR R/B 3.7 18:08:02 10° NW 18:09:53 13° NNW 18:11:43 10° NNE
ISS -3.7 18:08:14 10° WSW 18:11:35 65° SSE 18:14:49 11° E
Meteor 2-5 Rocket 4.4 18:06:28 10° N 18:11:37 34° ENE 18:16:49 10° SE
Cosmos 1844 4.3 18:06:32 10° S 18:11:38 35° ESE 18:16:41 10° NE
Cosmos 2034 Rocket 4.3 18:06:13 10° SSE 18:12:11 45° E 18:18:07 10° NNE
NOSS 3-4 (A) 4.5 18:08:46 10° SSE 18:13:05 21° ESE 18:17:35 10° ENE
NOSS 3-4 (C) 4.5 18:08:54 10° SSE 18:13:11 21° ESE 18:17:41 10° ENE
Lacrosse 4 Rocket 3.2 18:10:57 10° N 18:13:41 17° NNE 18:16:24 10° ENE
USA 186 3.0 18:11:24 10° ESE 18:14:06 24° ENE 18:16:50 10° N
Meteor 1-12 Rocket 4.3 18:09:41 10° S 18:15:27 63° E 18:21:09 10° NNE
Cosmos 1300 Rocket 3.6 18:16:20 10° S 18:20:42 64° E 18:25:07 10° NNE
Okean 1 Rocket 4.0 18:20:18 10° SE 18:24:03 27° E 18:27:51 10° NNE
CENTAUR R/B 3.2 18:16:48 10° NW 18:24:43 89° SW 18:33:31 10° SE
Sich 1 Rocket 3.8 18:20:32 10° SSW 18:25:03 78° W 18:29:40 10° N
NOSS 2-2 (E) 3.7 18:22:15 10° WSW 18:25:48 62° NW 18:30:04 10° NE
Cosmos 1833 Rocket 3.6 18:20:58 10° NNW 18:26:04 33° NE 18:30:12 14° ESE
Cosmos 2298 Rocket 4.0 18:21:59 10° SSW 18:27:15 67° ESE 18:32:34 10° NNE
Resurs 01 Rocket 3.4 18:25:52 13° E 18:27:47 16° ENE 18:30:31 10° NNE
CSL-04 Debris 4.4 18:25:54 10° S 18:31:17 76° WSW 18:36:43 10° NNW
CSL-04 Rocket 3.9 18:27:46 10° SSE 18:33:14 77° WSW 18:38:48 10° NNW
Cosmos 1025 Rocket 3.3 18:29:00 10° NNW 18:33:24 76° W 18:37:47 10° S
Cosmos 1766 4.2 18:31:42 10° SSE 18:35:01 26° E 18:38:22 10° NNE
Okean 2 Rocket 3.1 18:30:46 10° S 18:35:15 88° ESE 18:39:45 10° N
ATLAS 2AS CENTAUR R/B 3.6 18:28:37 10° S 18:35:31 34° ESE 18:42:22 10° NE
NOSS 2-2 (D) 3.7 18:32:07 10° WSW 18:35:40 63° NW 18:39:51 10° NE
YAOGAN 1 3.7 18:31:44 10° S 18:35:54 47° W 18:40:06 10° NNW
ATLAS 3B R/B 3.0 18:30:28 10° NW 18:37:07 54° NE 18:42:35 17° ESE
Abrixas rocket 3.3 18:38:13 10° W 18:40:42 27° SSW 18:42:11 17° SSE
CREW DRAGON DEMO-1 DEB 4.0 18:39:40 10° W 18:42:30 35° SSW 18:44:16 18° SSE
Cosmos 1536 Rocket 3.7 18:38:43 10° NNW 18:43:12 80° W 18:47:39 10° S
SPOT 3 Rocket 4.4 18:40:10 17° ESE 18:43:14 31° ENE 18:47:44 10° N
ARIANE 5 R/B 4.5 18:42:31 13° ENE 18:43:25 14° NE 18:45:38 10° NNE
Cosmos 1125 Rocket 3.5 18:42:39 10° S 18:47:54 63° ESE 18:53:10 10° NNE
Cosmos 1892 Rocket 4.4 18:46:03 10° N 18:49:52 29° ENE 18:51:25 23° ESE
Resurs 1-3 4.4 18:48:54 22° ESE 18:50:56 33° ENE 18:54:53 10° N
SJ-6B 2.9 18:48:31 18° SE 18:51:03 50° ENE 18:54:46 10° N
Cosmos 2195 Rocket 4.5 18:47:11 10° N 18:53:25 62° ENE 18:59:30 10° SSE
CZ-4 R/B 3.8 18:50:04 10° SSW 18:53:39 27° W 18:57:12 10° NW
Cosmos 2150 Rocket 4.2 18:49:25 10° SSW 18:54:51 84° WNW 19:00:22 10° NNE
Cosmos 1674 2.7 18:51:44 10° NNW 18:55:37 83° W 18:59:26 10° S
CZ-2C R/B 4.2 18:50:28 10° S 18:55:42 49° W 19:01:14 10° NNW
Cosmos 2026 Rocket 4.1 18:49:57 10° N 18:56:15 57° ENE 19:02:16 11° SSE
Cosmos 1464 Rocket 4.3 18:50:09 10° SSW 18:56:17 72° WNW 19:02:31 10° N
Cosmos 1092 Rocket 3.9 18:50:19 10° N 18:56:30 72° ENE 19:02:41 10° SSE
Cosmos 2285 Rocket 4.0 18:52:26 10° S 18:58:39 64° ESE 19:04:57 10° NNE
MOS 1 Rocket 3.1 18:57:32 10° NNE 19:01:58 84° WNW 19:06:15 10° SSW
FREGAT/IRIS 2.1 19:04:41 63° E 19:04:50 65° ENE 19:07:25 10° N
TSX-5 4.3 19:05:55 10° S 19:09:42 46° ESE 19:14:33 10° NE
ARGOS 3.7 19:05:55 10° S 19:11:12 59° W 19:16:33 10° NNW
CZ-2C R/B 2.7 19:06:38 10° NNE 19:12:10 60° ESE 19:17:43 10° S
Cosmos 1340 Rocket 3.1 19:15:12 41° ESE 19:15:25 41° E 19:19:14 10° NNE
Cosmos 2279 Rocket 4.4 19:12:59 22° SE 19:16:29 39° E 19:22:14 10° NNE
Cosmos 1733 3.1 19:13:48 13° S 19:17:06 65° E 19:20:55 10° NNE
GRACE-FO 1 4.5 19:13:57 10° N 19:17:41 68° E 19:19:03 36° SSE
GRACE-FO 2 4.5 19:14:19 10° N 19:18:03 69° E 19:19:25 36° SSE
MOS 1 4.3 19:13:05 11° SSE 19:18:33 88° WSW 19:24:18 10° NNW
Lacrosse 5 rocket 2.2 19:14:37 10° WNW 19:18:52 46° NNE 19:20:43 29° ENE
Cosmos 2082 Rocket 2.7 19:13:52 10° NNW 19:19:15 44° NE 19:21:17 32° E
DMSP B5D2-2 4.0 19:16:45 10° NNE 19:22:01 62° E 19:27:15 10° S
BREEZE-M R/B 3.7 19:15:17 10° WSW 19:23:46 52° S 19:24:25 45° SE
Spot 2 Rocket 4.5 19:25:14 27° ENE 19:25:49 28° ENE 19:30:04 10° N
OBJECT-B 0.6 19:28:48 79° E 19:28:49 79° ENE 19:32:05 10° N
Cosmos 1805 3.5 19:25:09 10° SSW 19:29:02 68° WNW 19:32:58 10° N
Ariane Rocket 3.5 19:28:06 10° S 19:33:02 59° WSW 19:38:06 10° NNW
H-2A R/B 3.9 19:30:26 10° SSW 19:34:47 29° W 19:39:16 10° NNW
Cosmos 1626 2.6 19:37:14 10° NNW 19:40:53 58° W 19:42:02 38° SSW
Cosmos 1626 Rocket 4.5 19:37:02 10° N 19:40:32 33° NE 19:40:32 33° NE
Okean 1-7 Rocket 3.6 19:36:41 10° N 19:41:15 66° ENE 19:41:50 58° ESE
Terra 3.7 19:42:51 16° NE 19:42:51 16° NE 19:45:13 10° NNE
USA 186 3.9 19:42:34 14° SSW 19:44:44 26° W 19:47:34 10° NW
COSMOS 2406 3.4 19:39:38 10° NW 19:45:18 69° WSW 19:47:55 32° S
Cosmos 1455 Rocket 3.7 19:47:18 41° NE 19:47:18 41° NE 19:50:30 10° NNE
Cosmos 1844 Rocket 3.7 19:42:36 10° SW 19:47:59 47° NW 19:53:24 10° NNE
ISS -3.2 19:45:01 10° W 19:47:46 56° W 19:47:46 56° W
SPOT 1/Viking Rocket 4.2 19:48:44 38° ENE 19:48:51 38° ENE 19:53:35 10° N
ATLAS CENTAUR R/B 3.7 19:48:49 10° NNW 19:50:18 12° N 19:51:16 11° NNE
Cosmos 2278 Rocket 2.2 19:51:32 52° SE 19:51:54 53° ESE 19:57:24 10° NE
Lacrosse 4 Rocket 1.3 19:48:57 10° NNW 19:52:52 73° NNE 19:52:52 73° NNE
Meteor 1-22 Rocket 4.4 19:50:40 10° SSW 19:56:36 81° WNW 20:02:46 10° NNE
Meteor 1-24 Rocket 4.3 19:52:09 10° NNW 19:57:35 56° W 20:01:37 19° SSW
Cosmos 909 Rocket 4.0 19:51:33 10° NW 19:58:13 78° NE 19:59:55 51° ESE
Cosmos 2266 Rocket 4.0 19:53:54 10° N 19:59:51 55° ENE 20:00:33 52° E
Exosat Rocket 4.2 19:54:50 10° SW 19:59:53 53° NW 20:04:54 10° NNE
SL-14 R/B 4.4 19:57:03 10° NNW 20:00:47 42° W 20:01:55 33° SW
Meteor 2-19 Rocket 4.3 19:55:38 10° N 20:01:47 86° E 20:03:47 46° SSE
Okean 1 Rocket 4.5 19:57:35 10° SW 20:01:48 39° WNW 20:06:03 10° N
NOSS 3-4 (A) 3.3 19:57:06 10° SW 20:03:04 89° SE 20:09:33 10° NE
NOSS 3-4 (C) 3.3 19:57:12 10° SW 20:03:09 89° SE 20:09:39 10° NE
Resurs 01 Rocket 1.5 20:03:26 77° SSW 20:03:42 82° WSW 20:08:12 10° NNW
Cosmos 614 Rocket 4.4 20:01:58 10° NNW 20:06:44 45° NE 20:06:44 45° NE
Cosmos 1833 Rocket 3.0 20:04:47 10° NW 20:10:21 60° WSW 20:11:54 44° SSW
Cosmos 1470 4.3 20:12:29 29° N 20:12:29 29° N 20:14:29 10° N
CZ-2C R/B 3.9 20:06:13 10° NNE 20:09:58 61° NNE 20:09:58 61° NNE
Cosmos 2251 Rocket 3.4 20:07:51 10° NNW 20:13:16 88° WSW 20:13:44 76° SSE
ERS-1 Rocket 3.8 20:17:40 38° NE 20:17:40 38° NE 20:21:32 10° N
IGS 5A 4.3 20:18:58 44° N 20:18:58 44° N 20:21:54 10° N
ARIANE 5 R/B 3.0 20:20:05 58° N 20:20:05 58° N 20:23:35 10° NNW
SPOT 3 Rocket 4.3 20:20:50 36° SSW 20:22:28 48° W 20:27:28 10° NNW
ATLAS 2AS CENTAUR R/B 3.0 20:18:00 10° SW 20:26:00 81° NW 20:33:52 10° NE
Landsat 7 4.0 20:27:59 66° N 20:27:59 66° N 20:32:06 10° NNW
ATLAS 3B R/B 3.2 20:21:18 10° NW 20:27:54 52° WSW 20:29:50 41° SSW
SPOT 5 3.7 20:33:48 45° NNE 20:33:48 45° NNE 20:38:02 10° N
Meteor 1-21 Rocket 4.2 20:27:11 10° NNW 20:33:00 86° W 20:33:15 82° SSW
Meteor 2-10 4.3 20:34:18 65° NNE 20:34:18 65° NNE 20:38:50 10° NNE
Cosmos 1655 Rocket 4.1 20:30:14 10° NNW 20:36:29 70° W 20:37:50 54° SSW
Cosmos 1461 4.0 20:35:51 10° NW 20:39:30 49° NNW 20:39:30 49° NNW
Lacrosse 5 rocket 3.1 20:53:51 10° WNW 20:56:20 33° WNW 20:56:20 33° WNW
Cosmos 2082 Rocket 3.1 20:58:07 10° NW 21:03:08 41° WSW 21:03:08 41° WSW
Spot 2 Rocket 4.4 21:05:26 46° WNW 21:05:26 46° WNW 21:09:29 10° NNW
COSMOS 2455 4.5 21:14:36 23° NE 21:14:36 23° NE 21:16:45 10° NE
Terra 3.4 21:21:44 31° NNW 21:21:44 31° NNW 21:24:15 10° NNW
ATLAS CENTAUR R/B 4.4 21:27:07 10° NNW 21:27:26 12° NNW 21:27:26 12° NNW
Lacrosse 4 Rocket 4.4 21:28:47 10° WNW 21:29:10 11° WNW 21:29:10 11° WNW
Cosmos 2278 Rocket 3.5 21:33:01 20° W 21:36:14 36° NW 21:41:27 10° NNE
Resurs 01 Rocket 4.5 21:41:01 11° W 21:41:01 11° W 21:42:22 10° WNW
USA 229 DEB 4.3 21:42:21 10° NW 21:49:03 54° NNE 21:49:03 54° NNE
USA 229 4.3 21:42:27 10° NW 21:49:09 54° NNE 21:49:09 54° NNE
NOSS 3-1 (A) 4.4 21:54:40 10° NW 22:01:22 54° NNE 22:01:22 54° NNE
Cosmos 2227 Rocket 4.3 22:07:48 10° NNW 22:11:39 18° NNE 22:11:40 18° NNE
ATLAS 2AS CENTAUR R/B 4.1 22:10:40 10° W 22:18:04 40° NNW 22:25:12 10° NE
Cosmos 1943 Rocket 4.3 22:24:03 19° NNE 22:24:03 19° NNE 22:25:36 10° NNE
NOSS 3-1 (C) 4.5 22:32:14 10° NW 22:37:24 53° NW 22:37:24 53° NW
CZ-4C R/B 4.0 22:45:17 29° NNE 22:45:17 29° NNE 22:49:01 10° NE
COSMOS 2455 4.5 22:57:43 30° NNW 22:57:43 30° NNW 23:02:39 10° NNE
Cosmos 2297 Rocket 4.1 22:53:23 10° NNW 22:56:26 25° N 22:56:26 25° N
Cosmos 2369 Rocket 4.2 23:10:32 24° NNE 23:10:32 24° NNE 23:12:46 10° NNE
SL-16 R/B 4.0 23:50:37 32° NE 23:50:37 32° NE 23:55:09 10° N
